Torna al catalogo

STARLINK-31704

AttivoComunicazioniVLEO
NORAD 59586·PAYLOAD·🇺🇸 United States

Lanciato Apr 23, 2024 da Cape Canaveral Space Force Station

Loading…

Prossimi Passaggi (prossime 24 ore)

TLE

AggiornatoSource: CelesTrak SupGP

Epoca: Sep 14, 2026, 13:58 UTC

1 59586C 24076Y   26257.58243056  .00137790  00000+0  10275-2 0  2577
2 59586  42.9813 300.6681 0026785  63.8738 295.0693 15.71217925    14

Traccia STARLINK-31704 in tempo reale con AllMySat

Download on the App Store